EW9660 Weather Reports


time (UTC)temp
F
wind
direction
speed
knots
gust
knots
rain 1hr
in
rain 24hr
in
rain mn
in
humidity
%
barometer
mb
20260906060008 70 355 0.0 1.7 0.00 0.00 0.00 91 1012.2
20260906054550 70 355 0.0 0.0 0.00 0.00 0.00 90 1012.3
20260906053010 70 355 0.0 0.0 0.00 0.00 0.00 91 1012.4
20260906051608 70 355 0.0 1.7 0.00 0.00 0.00 90 1012.6
20260906050024 70 355 0.0 1.7 0.00 0.00 0.00 90 1012.7
20260906044515 71 292 0.0 1.7 0.00 0.00 0.00 90 1012.8
20260906043112 71 292 0.0 1.7 0.00 0.00 0.00 91 1012.8
20260906041547 71 292 0.0 0.0 0.00 0.00 0.00 90 1012.8
20260906040035 71 292 0.0 0.0 0.00 0.00 0.00 90 1012.9
20260906034525 71 292 0.0 0.0 0.00 0.00 0.00 90 1013.0
20260906033016 71 292 0.0 0.0 0.00 0.00 0.00 89 1013.1
20260906031615 72 292 0.0 0.0 0.00 0.00 0.00 89 1013.1
20260906030028 72 292 0.0 0.0 0.00 0.00 0.00 89 1013.2
20260906024520 72 292 0.0 0.0 0.00 0.00 0.00 89 1013.0
20260906023006 72 292 0.0 0.0 0.00 0.00 0.00 89 1012.7
20260906021536 73 292 0.0 0.0 0.00 0.00 0.00 89 1012.7
20260906020024 73 292 0.0 0.0 0.00 0.00 0.00 88 1012.6
20260906014522 73 292 0.0 0.0 0.00 0.00 0.00 87 1012.5
20260906013006 74 292 0.0 0.0 0.00 0.00 0.00 87 1012.6
20260906011539 74 292 0.0 0.0 0.00 0.00 0.00 86 1012.3
20260906010107 75 292 0.0 0.0 0.00 0.00 0.00 86 1012.2
20260906004551 75 292 0.0 0.9 0.00 0.00 0.00 85 1012.2
20260906003042 76 292 0.0 1.7 0.00 0.00 0.00 84 1012.0
20260906001524 76 292 0.0 0.9 0.00 0.00 0.00 83 1012.0
20260906000015 77 292 0.0 0.9 0.00 0.00 0.00 82 1011.8
20260905234502 78 292 0.0 1.7 0.00 0.00 0.00 80 1011.7
20260905233103 79 292 0.0 0.0 0.00 0.00 0.00 78 1011.5
20260905231541 80 292 0.0 1.7 0.00 0.00 0.00 75 1011.3
20260905230028 82 339 0.0 0.9 0.00 0.00 0.00 71 1011.4
20260905224505 83 339 0.0 1.7 0.00 0.00 0.00 70 1011.6
20260905223035 85 339 0.0 1.7 0.00 0.00 0.00 66 1011.3
20260905221509 84 302 0.9 1.7 0.00 0.00 0.00 65 1011.4
20260905220045 83 304 0.0 1.7 0.00 0.00 0.00 67 1011.6
20260905214523 80 347 0.0 2.6 0.00 0.00 0.00 71 1011.8
20260905213009 80 5 0.0 2.6 0.00 0.00 0.00 71 1011.9
20260905211542 78 152 0.9 2.6 0.00 0.00 0.00 70 1012.2
20260905210011 77 332 0.9 4.3 0.00 0.00 0.00 72 1012.2
20260905204553 76 323 0.9 2.6 0.00 0.00 0.00 73 1012.2
20260905203036 76 355 0.0 1.7 0.00 0.00 0.00 74 1012.4
20260905201518 77 346 0.0 2.6 0.00 0.00 0.00 73 1012.7
20260905200128 78 27 0.9 4.3 0.00 0.00 0.00 70 1012.3
20260905194523 79 182 0.9 5.2 0.00 0.00 0.00 68 1013.3
20260905193004 79 355 3.5 7.0 0.00 0.00 0.00 70 1012.8
20260905191506 82 63 0.9 2.6 0.00 0.00 0.00 69 1011.8
20260905190025 84 86 0.9 4.3 0.00 0.00 0.00 65 1011.3
20260905184603 90 37 5.2 13.0 0.00 0.00 0.00 56 1011.8
20260905183019 93 49 0.0 2.6 0.00 0.00 0.00 55 1011.8
20260905181514 95 52 0.9 3.5 0.00 0.00 0.00 51 1012.1
20260905180010 95 162 1.7 4.3 0.00 0.00 0.00 49 1012.2
20260905174604 94 329 1.7 4.3 0.00 0.00 0.00 49 1012.8
20260905173035 95 169 0.9 3.5 0.00 0.00 0.00 53 1012.9
20260905171516 94 330 3.5 5.2 0.00 0.00 0.00 49 1013.2
20260905170053 94 304 0.9 3.5 0.00 0.00 0.00 54 1013.3
20260905164517 93 29 0.9 6.1 0.00 0.00 0.00 54 1013.6
20260905163111 92 9 1.7 4.3 0.00 0.00 0.00 60 1013.8
20260905161544 92 209 0.9 1.7 0.00 0.00 0.00 58 1013.9
20260905160031 91 294 0.9 4.3 0.00 0.00 0.00 62 1014.1
20260905154603 90 62 1.7 3.5 0.00 0.00 0.00 63 1014.2
20260905153029 89 355 0.9 3.5 0.00 0.00 0.00 65 1014.1
20260905151502 89 16 1.7 5.2 0.00 0.00 0.00 65 1014.1
20260905150004 89 200 0.0 1.7 0.00 0.00 0.00 69 1014.2
20260905144553 87 239 0.0 1.7 0.00 0.00 0.00 70 1014.2
20260905143030 85 360 1.7 3.5 0.00 0.00 0.00 72 1014.3
20260905141520 84 309 0.9 2.6 0.00 0.00 0.00 75 1014.3
20260905140101 82 355 0.0 2.6 0.00 0.00 0.00 79 1014.3
20260905134529 81 316 0.0 0.0 0.00 0.00 0.00 84 1014.3
20260905133111 79 215 0.0 0.0 0.00 0.00 0.00 88 1014.3
20260905131531 77 215 0.0 0.0 0.00 0.00 0.00 91 1014.4
20260905130016 76 215 0.0 0.0 0.00 0.00 0.00 92 1014.4
20260905124557 74 215 0.0 0.0 0.00 0.00 0.00 92 1014.4
20260905123029 73 215 0.0 0.0 0.00 0.00 0.00 92 1014.4
20260905121521 73 215 0.0 0.0 0.00 0.00 0.00 92 1014.6
20260905120034 72 215 0.0 0.0 0.00 0.00 0.00 92 1014.5
20260905114516 72 215 0.0 0.0 0.00 0.00 0.00 91 1014.3
20260905113007 72 215 0.0 0.0 0.00 0.00 0.00 92 1014.0
20260905111632 71 215 0.0 0.9 0.00 0.00 0.00 92 1013.8
20260905110021 72 215 0.0 0.0 0.00 0.00 0.00 91 1013.5
20260905104511 72 215 0.0 0.0 0.00 0.00 0.00 91 1013.3
20260905103022 72 215 0.0 0.9 0.00 0.00 0.00 91 1013.2
20260905101602 72 215 0.0 0.0 0.00 0.00 0.00 91 1013.2
20260905100019 72 215 0.0 0.0 0.00 0.00 0.00 91 1013.1
20260905094549 72 215 0.0 0.9 0.00 0.00 0.00 91 1013.2
20260905093029 72 215 0.0 0.0 0.00 0.00 0.00 91 1013.2
20260905091503 72 215 0.0 0.0 0.00 0.00 0.00 91 1013.1
20260905090038 73 215 0.0 0.0 0.00 0.00 0.00 90 1013.3
20260905084522 73 215 0.0 0.9 0.00 0.00 0.00 91 1013.3
20260905083009 73 215 0.0 0.0 0.00 0.00 0.00 91 1013.3
20260905081542 73 215 0.0 0.9 0.00 0.00 0.00 91 1013.4
20260905080028 74 215 0.0 0.0 0.00 0.00 0.00 91 1013.7
20260905074522 74 215 0.0 0.9 0.00 0.00 0.00 90 1013.7
20260905073011 74 215 0.0 0.9 0.00 0.00 0.00 90 1013.7
20260905071549 74 215 0.0 0.9 0.00 0.00 0.00 90 1013.8
20260905070045 75 215 0.0 1.7 0.00 0.00 0.00 91 1013.9
20260905064503 75 215 0.0 0.9 0.00 0.00 0.00 91 1014.3
20260905063101 75 215 0.0 0.9 0.00 0.00 0.00 91 1014.4
20260905061523 75 215 0.0 0.9 0.00 0.00 0.00 90 1014.7